User: anonymous   Login
Location: Aragnouet
(42.7874°N, 0.2165°E)
Time: 16:54:17
(UTC+00:00)
Language:

Cosmos 1943 - Orbit

View from above orbital plane
View from above orbital plane
View from above satellite
View from above satellite

Ground track
Ground track

The orbit data is extracted from the following two-line orbital elements,

1 19119U 88039A   20196.43188770  .00000206  00000-0  13070-3 0  9997
2 19119  71.0031 262.8058 0010534 159.1071 212.1294 14.15157425661002
Epoch (UTC): 14 July 2020 10:21:55
Eccentricity: 0.0010534
inclination: 71.0031°
perigee height: 834 km
apogee height: 849 km
right ascension of ascending node: 262.8058°
argument of perigee: 159.1071°
revolutions per day: 14.15157425
mean anomaly at epoch: 212.1294°
orbit number at epoch: 66100

The dashed part of the orbit path shows where the satellite is in the earth's shadow,  

DLR